Location: Las Vegas
(36.1750°N, 115.1360°W)
Time: 13:06:10
(UTC-07:00)

Amateur Radio Satellites - All Passes

Search period start: 29 August 2014 12:36
Search period end: 30 August 2014 12:36
Location: Las Vegas, 36.1750°N, 115.1360°W

Satellite Date Start Highest point End Downlink Frequencies (MHz)
Time Altitude Azimuth
MaSat-1 29 Aug 12:42:05 12:46:13 30° 105° (ESE) 12:50:39 437.345 MHz
Oscar 19 29 Aug 13:02:39 13:07:33 46° 72° (ENE) 13:12:29 437.125 CW, 437.150 USB
PANSAT 29 Aug 13:21:32 13:24:41 24° 174° (S) 13:27:49 not established
ITAMSAT 1 29 Aug 13:31:59 13:36:44 38° 70° (ENE) 13:41:30 435.822 SSB
RS-15 29 Aug 13:33:35 13:38:37 14° 12° (NNE) 13:43:41 29.354 - 29.394 USB, Beacon 29.352 USB
TMSAT-1 29 Aug 13:36:17 13:38:43 13° 62° (ENE) 13:41:09 436.925 FM
Oscar 16 29 Aug 13:37:00 13:42:08 77° 257° (WSW) 13:47:20 437.025 USB, Beacon 2401.1428
JAS-1B 29 Aug 13:38:11 13:47:42 56° 70° (ENE) 13:56:25 435.800 - 435.900 CW/SSB
Oscar 10/S400 29 Aug 13:39:05 13:49:28 12° 158° (SSE) 13:57:12 145.825 - 145.975 CW/USB, Beacon 145.810 USB
AO-Echo 29 Aug 13:41:15 13:46:11 52° 73° (ENE) 13:50:58 ?
Uribyol 2 29 Aug 13:42:03 13:47:01 52° 72° (ENE) 13:52:01 436.500 FM
SO-50 29 Aug 13:46:40 13:51:13 43° 245° (WSW) 13:55:47 436.795 FM
AO-7 29 Aug 13:54:24 13:56:26 11° 48° (NE) 13:58:28 29.400 - 29.500 MHz
AO-27 29 Aug 14:00:10 14:05:19 76° 75° (ENE) 14:10:30 436.795 MHz FM
UOSAT-12 29 Aug 14:14:09 14:18:19 30° 52° (NE) 14:22:26 437.025 FM, 437.400 FM
MaSat-1 29 Aug 14:18:56 14:23:11 30° 302° (WNW) 14:27:41 437.345 MHz
Gurwin Techsat 1B 29 Aug 14:20:28 14:25:33 50° 72° (ENE) 14:30:40 435.225 FM
Oscar 19 29 Aug 14:43:37 14:47:05 18° 267° (W) 14:50:34 437.125 CW, 437.150 USB
PANSAT 29 Aug 15:01:16 15:04:23 24° 187° (S) 15:07:31 not established
ITAMSAT 1 29 Aug 15:12:22 15:16:18 22° 265° (W) 15:20:16 435.822 SSB
TMSAT-1 29 Aug 15:12:43 15:17:59 71° 258° (WSW) 15:23:17 436.925 FM
AO-Echo 29 Aug 15:22:15 15:25:10 15° 267° (W) 15:28:02 ?
Uribyol 2 29 Aug 15:23:39 15:26:46 16° 267° (W) 15:29:53 436.500 FM
JAS-1B 29 Aug 15:29:28 15:38:12 36° 264° (W) 15:46:27 435.800 - 435.900 CW/SSB
AO-7 29 Aug 15:39:21 15:47:28 59° 67° (ENE) 15:55:34 29.400 - 29.500 MHz
AO-27 29 Aug 15:44:21 15:45:19 11° 269° (W) 15:46:18 436.795 MHz FM
RS-15 29 Aug 15:45:51 15:55:47 36° 45° (NE) 16:05:59 29.354 - 29.394 USB, Beacon 29.352 USB
Sapphire 29 Aug 15:48:29 15:51:23 15° 104° (ESE) 15:54:16 437.095 MHz 1200 baud AX-25 AFSK
OPAL 29 Aug 15:53:06 15:54:40 11° 93° (E) 15:56:14 ?
UOSAT-12 29 Aug 15:54:23 15:58:22 28° 248° (WSW) 16:02:16 437.025 FM, 437.400 FM
Gurwin Techsat 1B 29 Aug 16:02:19 16:05:46 18° 267° (W) 16:09:14 435.225 FM
Uosat F 29 Aug 16:08:53 16:13:53 78° 75° (ENE) 16:18:54 435.120 FM
PCSat 29 Aug 16:16:02 16:20:41 30° 108° (ESE) 16:25:22 145.825 MHz
ISS 29 Aug 16:26:33 16:28:30 15° 26° (NNE) 16:30:26 145.800 FM
PANSAT 29 Aug 16:42:17 16:43:59 13° 199° (SSW) 16:45:41 not established
JAS-2 29 Aug 17:20:50 17:26:44 42° 72° (ENE) 17:32:01 435.800 - 435.900 CW/SSB, 435.910 FM
OPAL 29 Aug 17:28:47 17:34:01 74° 287° (WNW) 17:39:11 ?
Sapphire 29 Aug 17:28:51 17:34:11 63° 299° (WNW) 17:39:34 437.095 MHz 1200 baud AX-25 AFSK
AO-7 29 Aug 17:33:44 17:40:33 28° 264° (W) 17:47:25 29.400 - 29.500 MHz
RS-15 29 Aug 17:57:52 18:08:51 67° 246° (WSW) 18:20:19 29.354 - 29.394 USB, Beacon 29.352 USB
PCSat 29 Aug 17:59:09 18:03:59 33° 304° (NW) 18:08:52 145.825 MHz
ISS 29 Aug 18:02:16 18:05:36 81° 223° (SW) 18:08:56 145.800 FM
Hamsat 29 Aug 18:05:18 18:09:34 68° 259° (W) 18:13:54 145.90 MHz
SO-67 29 Aug 18:14:49 18:16:56 16° 70° (ENE) 18:19:04 435.3500 MHz FM
JAS-2 29 Aug 19:06:47 19:11:51 25° 263° (W) 19:16:30 435.800 - 435.900 CW/SSB, 435.910 FM
STRAND 1 29 Aug 19:10:41 19:15:40 51° 100° (E) 19:20:36 ?
SO-67 29 Aug 19:46:56 19:49:46 24° 264° (W) 19:52:38 435.3500 MHz FM
RS-15 29 Aug 20:16:34 20:19:08 11° 263° (W) 20:21:44 29.354 - 29.394 USB, Beacon 29.352 USB
HO-68 29 Aug 20:26:49 20:33:43 56° 69° (ENE) 20:40:39 435.675 MHz FM
STRAND 1 29 Aug 20:51:10 20:54:24 17° 295° (WNW) 20:57:38 ?
UKube-1 29 Aug 21:22:41 21:27:02 89° 76° (ENE) 21:31:24 145.840 MHz, 145.915 MHz
Oscar 11 29 Aug 21:29:57 21:34:13 62° 75° (ENE) 21:38:31 145.825 FM, Beacon 2401.500 USB
FUNcube-1 29 Aug 21:53:15 21:57:07 39° 73° (ENE) 22:01:05 145.950 - 145.970 MHz USB
HO-68 29 Aug 22:16:08 22:21:42 24° 265° (W) 22:27:19 435.675 MHz FM
Saudisat 1A 29 Aug 22:20:57 22:25:11 49° 116° (ESE) 22:29:27 436.775 MHz
MaSat-1 29 Aug 22:39:00 22:43:09 34° 59° (ENE) 22:46:47 437.345 MHz
KITSAT 1 29 Aug 23:22:50 23:30:50 70° 114° (ESE) 23:38:53 435.175 FM
FUNcube-1 29 Aug 23:31:34 23:33:42 14° 268° (W) 23:35:52 145.950 - 145.970 MHz USB
Saudisat 1A 30 Aug 00:02:07 00:05:02 17° 312° (NW) 00:07:58 436.775 MHz
MaSat-1 30 Aug 00:16:58 00:19:43 17° 260° (W) 00:22:14 437.345 MHz
AO-40 30 Aug 00:40:43 02:16:25 25° 226° (SW) 05:27:34 Beacon 2401.320
PCSat 30 Aug 01:07:07 01:10:28 16° 48° (NE) 01:13:48 145.825 MHz
Oscar 19 30 Aug 01:17:46 01:21:36 21° 94° (E) 01:25:24 437.125 CW, 437.150 USB
KITSAT 1 30 Aug 01:20:16 01:26:53 27° 314° (NW) 01:33:32 435.175 FM
JAS-1B 30 Aug 01:32:53 01:34:23 11° 86° (E) 01:35:50 435.800 - 435.900 CW/SSB
ITAMSAT 1 30 Aug 01:48:34 01:51:52 17° 93° (E) 01:55:10 435.822 SSB
Oscar 16 30 Aug 01:51:34 01:56:35 47° 100° (E) 02:01:33 437.025 USB, Beacon 2401.1428
AO-Echo 30 Aug 01:52:08 01:55:27 19° 94° (E) 01:58:46 ?
Uribyol 2 30 Aug 01:58:08 02:02:12 23° 95° (E) 02:06:16 436.500 FM
AO-27 30 Aug 02:16:17 02:20:57 33° 98° (E) 02:25:36 436.795 MHz FM
Oscar 10/S400 30 Aug 02:19:16 03:32:37 48° 227° (SW) 09:38:40 145.825 - 145.975 CW/USB, Beacon 145.810 USB
Sapphire 30 Aug 02:19:28 02:24:49 58° 61° (ENE) 02:30:09 437.095 MHz 1200 baud AX-25 AFSK
SO-50 30 Aug 02:22:59 02:23:24 10° 106° (ESE) 02:23:49 436.795 FM
Gurwin Techsat 1B 30 Aug 02:39:57 02:44:16 25° 95° (E) 02:48:33 435.225 FM
PCSat 30 Aug 02:49:01 02:54:26 72° 246° (WSW) 02:59:48 145.825 MHz
Oscar 19 30 Aug 02:56:12 03:01:03 41° 289° (WNW) 03:05:53 437.125 CW, 437.150 USB
OPAL 30 Aug 03:04:44 03:07:50 17° 62° (ENE) 03:10:57 ?
JAS-1B 30 Aug 03:19:26 03:26:09 81° 286° (WNW) 03:31:59 435.800 - 435.900 CW/SSB
ITAMSAT 1 30 Aug 03:26:36 03:31:36 50° 288° (WNW) 03:36:35 435.822 SSB
AO-Echo 30 Aug 03:30:02 03:34:19 36° 289° (WNW) 03:38:37 ?
TMSAT-1 30 Aug 03:31:20 03:36:33 58° 101° (E) 03:41:45 436.925 FM
Oscar 16 30 Aug 03:31:57 03:35:32 19° 295° (WNW) 03:39:06 437.025 USB, Beacon 2401.1428
Uribyol 2 30 Aug 03:36:59 03:41:43 37° 290° (WNW) 03:46:28 436.500 FM
AO-7 30 Aug 03:45:21 03:51:16 21° 94° (E) 03:57:08 29.400 - 29.500 MHz
AO-27 30 Aug 03:56:03 04:00:17 26° 292° (WNW) 04:04:31 436.795 MHz FM
SO-50 30 Aug 03:58:52 04:03:18 68° 301° (WNW) 04:07:51 436.795 FM
Sapphire 30 Aug 04:04:26 04:07:42 16° 256° (WSW) 04:10:58 437.095 MHz 1200 baud AX-25 AFSK
Gurwin Techsat 1B 30 Aug 04:19:27 04:24:15 36° 290° (WNW) 04:29:01 435.225 FM
Uosat F 30 Aug 04:19:47 04:24:07 29° 97° (E) 04:28:26 435.120 FM
UOSAT-12 30 Aug 04:24:23 04:27:06 16° 108° (ESE) 04:29:50 437.025 FM, 437.400 FM
OPAL 30 Aug 04:41:17 04:46:12 55° 257° (WSW) 04:51:14 ?
TMSAT-1 30 Aug 05:12:47 05:15:57 16° 296° (WNW) 05:19:07 436.925 FM
JAS-1B 30 Aug 05:13:58 05:15:20 11° 307° (NW) 05:16:40 435.800 - 435.900 CW/SSB
AO-7 30 Aug 05:36:23 05:44:38 73° 290° (WNW) 05:52:51 29.400 - 29.500 MHz
Hamsat 30 Aug 05:54:16 05:57:55 26° 96° (E) 06:01:31 145.90 MHz
Uosat F 30 Aug 05:58:36 06:02:47 28° 292° (WNW) 06:06:58 435.120 FM
UOSAT-12 30 Aug 06:02:19 06:06:47 49° 304° (WNW) 06:11:21 437.025 FM, 437.400 FM
RS-15 30 Aug 06:08:55 06:17:07 24° 103° (ESE) 06:25:09 29.354 - 29.394 USB, Beacon 29.352 USB
JAS-2 30 Aug 06:16:40 06:21:42 44° 100° (E) 06:27:08 435.800 - 435.900 CW/SSB, 435.910 FM
STRAND 1 30 Aug 06:24:00 06:28:58 56° 73° (ENE) 06:33:57 ?
Saudisat 1A 30 Aug 06:50:45 06:54:03 20° 49° (NE) 06:57:20 436.775 MHz
SO-67 30 Aug 07:12:59 07:15:54 25° 96° (E) 07:18:47 435.3500 MHz FM
KITSAT 1 30 Aug 07:19:50 07:26:00 23° 44° (NE) 07:32:08 435.175 FM
Hamsat 30 Aug 07:30:17 07:33:44 23° 290° (WNW) 07:37:09 145.90 MHz
AO-7 30 Aug 07:32:03 07:35:59 14° 309° (NW) 07:39:54 29.400 - 29.500 MHz
JAS-2 30 Aug 08:02:47 08:06:34 20° 293° (WNW) 08:10:32 435.800 - 435.900 CW/SSB, 435.910 FM
STRAND 1 30 Aug 08:05:46 08:08:28 14° 268° (W) 08:11:10 ?
RS-15 30 Aug 08:17:07 08:28:15 77° 301° (WNW) 08:39:13 29.354 - 29.394 USB, Beacon 29.352 USB
Saudisat 1A 30 Aug 08:29:39 08:33:46 39° 246° (WSW) 08:37:50 436.775 MHz
SO-67 30 Aug 08:46:44 08:48:43 15° 290° (WNW) 08:50:41 435.3500 MHz FM
ISS 30 Aug 09:08:19 09:09:44 12° 127° (SE) 09:11:10 145.800 FM
KITSAT 1 30 Aug 09:14:13 09:22:19 83° 244° (WSW) 09:30:22 435.175 FM
UKube-1 30 Aug 09:14:40 09:17:41 18° 95° (E) 09:20:40 145.840 MHz, 145.915 MHz
Oscar 11 30 Aug 09:21:53 09:24:12 14° 93° (E) 09:26:29 145.825 FM, Beacon 2401.500 USB
HO-68 30 Aug 09:44:38 09:51:48 74° 104° (ESE) 09:58:57 435.675 MHz FM
FUNcube-1 30 Aug 09:47:34 09:48:25 10° 91° (E) 09:49:16 145.950 - 145.970 MHz USB
RS-15 30 Aug 10:34:30 10:42:41 23° 327° (NNW) 10:50:54 29.354 - 29.394 USB, Beacon 29.352 USB
ISS 30 Aug 10:42:51 10:46:06 54° 321° (NW) 10:49:23 145.800 FM
UKube-1 30 Aug 10:50:02 10:53:56 33° 289° (WNW) 10:57:48 145.840 MHz, 145.915 MHz
Oscar 11 30 Aug 10:56:25 11:00:34 43° 287° (WNW) 11:04:40 145.825 FM, Beacon 2401.500 USB
KITSAT 1 30 Aug 11:13:04 11:16:28 13° 260° (W) 11:19:52 435.175 FM
PANSAT 30 Aug 11:17:59 11:19:59 14° 162° (SSE) 11:21:58 not established
FUNcube-1 30 Aug 11:20:38 11:25:07 63° 285° (WNW) 11:29:40 145.950 - 145.970 MHz USB
HO-68 30 Aug 11:33:56 11:38:44 20° 301° (WNW) 11:43:33 435.675 MHz FM
JAS-1B 30 Aug 12:12:25 12:17:29 16° 57° (ENE) 12:22:18 435.800 - 435.900 CW/SSB
ISS 30 Aug 12:22:39 12:23:27 11° 339° (NNW) 12:24:16 145.800 FM
MaSat-1 30 Aug 12:23:56 12:27:59 28° 104° (ESE) 12:32:17 437.345 MHz
